TimeCDT,TemperatureF,Dew PointF,Humidity,Sea Level PressureIn,VisibilityMPH,Wind Direction,Wind SpeedMPH,Gust SpeedMPH,PrecipitationIn,Events,Conditions,WindDirDegrees,DateUTC
12:53 AM,52.0,52.0,100,29.91,7.0,Calm,Calm,-,N/A,,Clear,0,2013-03-31 05:53:00
1:53 AM,48.9,48.9,100,29.92,5.0,Calm,Calm,-,N/A,,Clear,0,2013-03-31 06:53:00
2:42 AM,48.2,48.2,100,29.91,1.8,Calm,Calm,-,N/A,,Clear,0,2013-03-31 07:42:00
2:50 AM,48.2,48.2,100,29.92,3.0,NW,3.5,-,N/A,,Clear,320,2013-03-31 07:50:00
2:53 AM,48.9,48.9,100,29.90,5.0,Calm,Calm,-,N/A,,Clear,0,2013-03-31 07:53:00
3:18 AM,48.2,48.2,100,29.92,1.5,Calm,Calm,-,N/A,,Clear,0,2013-03-31 08:18:00
3:23 AM,48.2,48.2,100,29.92,4.0,Calm,Calm,-,N/A,,Clear,0,2013-03-31 08:23:00
3:53 AM,51.1,51.1,100,29.92,6.0,Calm,Calm,-,N/A,,Clear,0,2013-03-31 08:53:00
4:22 AM,51.8,50.0,94,30.00,2.5,NNW,15.0,26.5,0.07,Rain-Thunderstorm,Rain,340,2013-03-31 09:22:00
4:34 AM,51.8,48.2,88,30.00,5.0,North,11.5,26.5,0.09,Rain-Thunderstorm,Light Rain,350,2013-03-31 09:34:00
4:43 AM,51.8,48.2,88,30.02,7.0,Variable,6.9,21.9,0.10,Rain,Light Rain,0,2013-03-31 09:43:00
4:53 AM,50.0,48.0,93,30.00,6.0,Variable,6.9,19.6,0.11,Rain,Light Rain,0,2013-03-31 09:53:00
5:53 AM,48.9,48.9,100,29.99,10.0,Calm,Calm,-,0.04,,Partly Cloudy,0,2013-03-31 10:53:00
6:53 AM,48.0,46.9,96,29.99,8.0,Calm,Calm,-,N/A,,Clear,0,2013-03-31 11:53:00
7:53 AM,46.0,46.0,100,30.01,4.0,Calm,Calm,-,0.01,,Clear,0,2013-03-31 12:53:00
8:53 AM,54.0,48.9,83,30.02,10.0,Variable,3.5,-,N/A,,Clear,0,2013-03-31 13:53:00
9:53 AM,57.9,48.9,72,30.01,10.0,Variable,3.5,-,N/A,,Clear,0,2013-03-31 14:53:00
10:53 AM,62.1,48.9,62,30.02,10.0,Variable,4.6,-,N/A,,Clear,0,2013-03-31 15:53:00
11:53 AM,63.0,46.9,56,30.01,10.0,Variable,3.5,-,N/A,,Clear,0,2013-03-31 16:53:00
12:53 PM,66.9,46.0,47,30.00,10.0,NE,9.2,-,N/A,,Clear,40,2013-03-31 17:53:00
1:53 PM,68.0,43.0,40,29.99,10.0,Variable,3.5,17.3,N/A,,Partly Cloudy,0,2013-03-31 18:53:00
2:53 PM,70.0,41.0,35,29.97,10.0,North,8.1,-,N/A,,Mostly Cloudy,10,2013-03-31 19:53:00
3:53 PM,72.0,39.0,30,29.96,10.0,Variable,5.8,-,N/A,,Partly Cloudy,0,2013-03-31 20:53:00
4:53 PM,71.1,37.9,30,29.95,10.0,Variable,4.6,-,N/A,,Clear,0,2013-03-31 21:53:00
5:53 PM,71.1,36.0,28,29.94,10.0,Calm,Calm,-,N/A,,Clear,0,2013-03-31 22:53:00
6:53 PM,68.0,37.0,32,29.93,10.0,NNE,5.8,-,N/A,,Clear,20,2013-03-31 23:53:00
7:53 PM,55.9,44.1,64,29.94,10.0,Calm,Calm,-,N/A,,Clear,0,2013-04-01 00:53:00
8:53 PM,51.1,44.1,77,29.96,10.0,Calm,Calm,-,N/A,,Clear,0,2013-04-01 01:53:00
9:53 PM,48.0,42.1,80,29.99,10.0,Calm,Calm,-,N/A,,Clear,0,2013-04-01 02:53:00
10:53 PM,48.0,41.0,77,30.00,10.0,Calm,Calm,-,N/A,,Clear,0,2013-04-01 03:53:00